When you browse on this site, cookies collect data to enhance your experience and personalize the content and advertising you see.
Visit our Privacy Policy to learn more. By continuing to use the site, you agree to this use of cookies and data.
  • In France
  • List of Countries
  • For 7 days
  • Water Temperature
  • Weather Map
  • Weather Widgets
  • user-avatar
    Login

    Hourly Weather Neuquén

    Today, 20 February, Thursday

    Time Temperature Precipitation Wind Pressure Humidity
    00:00 +16°C° 0 mm 3 mps 737 mmHg 16%
    01:00 +15°C° 0 mm 2 mps 737 mmHg 19%
    02:00 +15°C° 0 mm 2 mps 737 mmHg 20%
    03:00 +14°C° 0 mm 2 mps 738 mmHg 22%
    04:00 +14°C° 0 mm 2 mps 738 mmHg 24%
    05:00 +15°C° 0 mm 2 mps 739 mmHg 23%
    06:00 +17°C° 0 mm 3 mps 739 mmHg 21%
    07:00 +18°C° 0 mm 3 mps 740 mmHg 19%
    08:00 +20°C° 0 mm 3 mps 740 mmHg 17%
    09:00 +22°C° 0 mm 3 mps 741 mmHg 15%
    10:00 +24°C° 0 mm 3 mps 741 mmHg 13%
    11:00 +25°C° 0 mm 3 mps 740 mmHg 12%
    12:00 +26°C° 0 mm 4 mps 740 mmHg 11%
    13:00 +27°C° 0 mm 4 mps 740 mmHg 10%
    14:00 +27°C° 0 mm 5 mps 739 mmHg 9%
    15:00 +28°C° 0 mm 5 mps 739 mmHg 9%
    16:00 +28°C° 0 mm 6 mps 739 mmHg 9%
    17:00 +26°C° 0 mm 6 mps 739 mmHg 10%
    18:00 +23°C° 0 mm 6 mps 739 mmHg 11%
    19:00 +22°C° 0 mm 6 mps 740 mmHg 12%
    20:00 +21°C° 0 mm 6 mps 740 mmHg 13%
    21:00 +20°C° 0 mm 5 mps 741 mmHg 14%
    22:00 +19°C° 0 mm 5 mps 741 mmHg 16%
    23:00 +17°C° 0 mm 6 mps 742 mmHg 21%

    Tomorrow, 21 February, Friday

    Time Temperature Precipitation Wind Pressure Humidity
    00:00 +16°C° 0 mm 6 mps 742 mmHg 27%
    01:00 +15°C° 0 mm 6 mps 742 mmHg 32%
    08:00 +16°C° 0 mm 6 mps 744 mmHg 42%
    09:00 +19°C° 0 mm 5 mps 744 mmHg 33%
    10:00 +21°C° 0 mm 6 mps 743 mmHg 24%
    11:00 +22°C° 0 mm 6 mps 743 mmHg 22%
    12:00 +24°C° 0 mm 6 mps 742 mmHg 20%
    13:00 +26°C° 0 mm 6 mps 742 mmHg 18%
    14:00 +26°C° 0 mm 6 mps 741 mmHg 17%
    15:00 +27°C° 0 mm 6 mps 741 mmHg 16%
    16:00 +27°C° 0 mm 6 mps 740 mmHg 15%
    17:00 +24°C° 0 mm 6 mps 740 mmHg 16%
    18:00 +23°C° 0 mm 5 mps 740 mmHg 17%
    19:00 +21°C° 0 mm 5 mps 740 mmHg 18%
    20:00 +20°C° 0 mm 5 mps 740 mmHg 22%
    21:00 +20°C° 0 mm 5 mps 740 mmHg 25%
    22:00 +19°C° 0 mm 5 mps 741 mmHg 29%
    23:00 +17°C° 0 mm 5 mps 740 mmHg 31%

    Day after tomorrow, 22 February, Saturday

    Time Temperature Precipitation Wind Pressure Humidity
    00:00 +17°C° 0 mm 5 mps 740 mmHg 34%
    01:00 +16°C° 0 mm 5 mps 739 mmHg 36%
    02:00 +15°C° 0 mm 4 mps 739 mmHg 37%
    03:00 +15°C° 0 mm 4 mps 739 mmHg 38%
    04:00 +14°C° 0 mm 4 mps 739 mmHg 39%
    05:00 +15°C° 0 mm 5 mps 739 mmHg 37%
    06:00 +16°C° 0 mm 6 mps 739 mmHg 36%
    07:00 +17°C° 0 mm 6 mps 739 mmHg 34%
    08:00 +21°C° 0 mm 7 mps 739 mmHg 29%
    09:00 +23°C° 0 mm 7 mps 738 mmHg 23%
    10:00 +27°C° 0 mm 8 mps 738 mmHg 18%
    11:00 +28°C° 0 mm 8 mps 737 mmHg 17%
    12:00 +31°C° 0 mm 9 mps 736 mmHg 15%
    13:00 +32°C° 0 mm 9 mps 736 mmHg 14%
    14:00 +32°C° 0 mm 9 mps 735 mmHg 14%
    15:00 +32°C° 0 mm 8 mps 734 mmHg 15%
    16:00 +32°C° 0 mm 8 mps 733 mmHg 15%
    17:00 +30°C° 0 mm 7 mps 733 mmHg 18%
    18:00 +28°C° 0 mm 6 mps 732 mmHg 20%
    19:00 +26°C° 0 mm 5 mps 732 mmHg 23%
    20:00 +26°C° 0 mm 5 mps 732 mmHg 24%
    21:00 +25°C° 0 mm 5 mps 732 mmHg 26%
    22:00 +23°C° 0 mm 5 mps 732 mmHg 28%
    23:00 +23°C° 0 mm 5 mps 731 mmHg 30%

    23 February, Sunday

    Time Temperature Precipitation Wind Pressure Humidity
    00:00 +23°C° 0 mm 5 mps 731 mmHg 32%
    01:00 +22°C° 0 mm 5 mps 730 mmHg 34%
    02:00 +21°C° 0 mm 4 mps 730 mmHg 37%
    03:00 +20°C° 0 mm 3 mps 729 mmHg 41%
    04:00 +19°C° 0 mm 2 mps 729 mmHg 45%
    05:00 +20°C° 0 mm 2 mps 729 mmHg 40%
    06:00 +23°C° 0 mm 2 mps 729 mmHg 36%
    07:00 +25°C° 0 mm 2 mps 729 mmHg 31%
    08:00 +28°C° 0 mm 3 mps 729 mmHg 26%
    09:00 +30°C° 0 mm 4 mps 729 mmHg 20%
    10:00 +34°C° 0 mm 5 mps 729 mmHg 14%
    11:00 +35°C° 0 mm 6 mps 728 mmHg 13%
    12:00 +38°C° 0 mm 7 mps 728 mmHg 11%
    13:00 +39°C° 0 mm 7 mps 727 mmHg 9%
    14:00 +39°C° 0 mm 9 mps 727 mmHg 9%
    15:00 +39°C° 0 mm 10 mps 726 mmHg 8%
    16:00 +38°C° 0 mm 11 mps 726 mmHg 8%
    17:00 +36°C° 0 mm 10 mps 726 mmHg 9%
    18:00 +33°C° 0 mm 10 mps 726 mmHg 9%
    19:00 +31°C° 0 mm 10 mps 726 mmHg 10%
    20:00 +28°C° 0 mm 10 mps 727 mmHg 13%
    21:00 +26°C° 0 mm 10 mps 727 mmHg 16%
    22:00 +24°C° 0 mm 10 mps 728 mmHg 19%
    23:00 +22°C° 0 mm 9 mps 727 mmHg 23%

    24 February, Monday

    Time Temperature Precipitation Wind Pressure Humidity
    00:00 +21°C° 0 mm 9 mps 727 mmHg 27%
    01:00 +20°C° 0 mm 8 mps 727 mmHg 31%
    02:00 +20°C° 0 mm 8 mps 728 mmHg 34%
    03:00 +18°C° 0 mm 8 mps 728 mmHg 36%
    04:00 +17°C° 0 mm 8 mps 728 mmHg 38%
    05:00 +18°C° 0 mm 8 mps 728 mmHg 37%
    06:00 +20°C° 0 mm 8 mps 729 mmHg 35%
    07:00 +21°C° 0 mm 9 mps 729 mmHg 33%
    08:00 +22°C° 0 mm 9 mps 729 mmHg 29%
    09:00 +24°C° 0 mm 9 mps 729 mmHg 26%
    10:00 +27°C° 0 mm 9 mps 729 mmHg 23%
    11:00 +28°C° 0 mm 10 mps 728 mmHg 21%
    12:00 +28°C° 0 mm 11 mps 728 mmHg 20%
    13:00 +29°C° 0 mm 12 mps 727 mmHg 18%
    14:00 +29°C° 0 mm 13 mps 727 mmHg 20%
    15:00 +28°C° 0 mm 14 mps 727 mmHg 21%
    16:00 +28°C° 0 mm 15 mps 726 mmHg 23%
    17:00 +26°C° 0 mm 14 mps 727 mmHg 26%
    18:00 +23°C° 0 mm 13 mps 727 mmHg 29%
    19:00 +20°C° 0 mm 13 mps 728 mmHg 32%
    20:00 +21°C° 0 mm 12 mps 728 mmHg 35%
    21:00 +19°C° 0 mm 11 mps 729 mmHg 37%
    22:00 +18°C° 0 mm 10 mps 729 mmHg 40%
    23:00 +17°C° 0 mm 9 mps 729 mmHg 41%

    25 February, Tuesday

    Time Temperature Precipitation Wind Pressure Humidity
    00:00 +17°C° 0 mm 9 mps 729 mmHg 43%
    01:00 +16°C° 0 mm 8 mps 728 mmHg 45%
    02:00 +16°C° 0 mm 9 mps 728 mmHg 46%
    03:00 +15°C° 0 mm 9 mps 729 mmHg 46%
    04:00 +15°C° 0 mm 9 mps 729 mmHg 47%
    05:00 +16°C° 0 mm 10 mps 729 mmHg 44%
    06:00 +16°C° 0 mm 10 mps 729 mmHg 40%
    07:00 +16°C° 0 mm 11 mps 730 mmHg 36%
    08:00 +18°C° 0 mm 10 mps 730 mmHg 31%
    09:00 +19°C° 0 mm 9 mps 730 mmHg 25%
    10:00 +22°C° 0 mm 7 mps 730 mmHg 19%
    11:00 +23°C° 0 mm 7 mps 730 mmHg 17%
    12:00 +24°C° 0 mm 7 mps 730 mmHg 14%
    13:00 +27°C° 0 mm 7 mps 730 mmHg 12%
    14:00 +27°C° 0 mm 7 mps 730 mmHg 12%
    15:00 +27°C° 0 mm 8 mps 729 mmHg 12%
    16:00 +27°C° 0 mm 8 mps 729 mmHg 11%
    17:00 +26°C° 0 mm 7 mps 730 mmHg 13%
    18:00 +23°C° 0 mm 6 mps 730 mmHg 14%
    19:00 +22°C° 0 mm 5 mps 731 mmHg 16%
    20:00 +21°C° 0 mm 5 mps 732 mmHg 17%
    21:00 +19°C° 0 mm 4 mps 732 mmHg 19%
    22:00 +18°C° 0 mm 4 mps 733 mmHg 20%
    23:00 +17°C° 0 mm 3 mps 734 mmHg 22%
    Show more